STARLINK-32301, 61664

Orbit data source: Space-Track

STARLINK-32301, 61664 is a payload satellite owned by SpaceX/Seattle (US) in LEO that was launched on Sat, 26 Oct 2024 UTC via an FALCON 9 launch vehicle from the Air Force Eastern Test Range (AFETR). Payload-class satellites include a variety of spacecraft equipped with specific instruments for various scientific and technological missions. These include communications satellites like Starlink; space stations such as the ISS; scientific satellites like the Hubble; Earth observation satellites from companies like Planet Labs, Umbra, and HawkEye 360; GPS; miniature CubeSats for education and research; and military/defense satellites.

Loading next visibility...
Identifier
61664, 2024-193D
Orbit
LEO
Country
Flag of USUS
Related business
Manufacturer
SpaceX/Seattle
Mission
Operational Commercial Communications
Bus & Motor
STARLINK V2M, Unknown motor
Mass
730 kg wet, ~700 kg dry
Launch date (UTC)
2024-10-26 (10 months ago)
Launch vehicle
FALCON 9
Launch site
Air Force Eastern Test Range (AFETR)
Object type
Payload
Rocket body
Debris
Shape & HBR
Box + 2 Pan, 14.5 m
Radar Cross Section
36.964 m², Large (>1 m²)

Expand to show TLE details & history
Last TLE update: 12 hours ago

TLE from 12 hours ago
0 STARLINK-32301
1 61664U 24193D   25243.43313398  .00000224  00000-0  19680-4 0  9998
2 61664  53.1599 255.0076 0001370  86.7261 273.3897 15.30190369 47392
Epoch: 2025-08-31T10:23Z
TLE epoch observation values (Epoch: 2025-08-31T10:23:42.775Z)
Latitude
Longitude
119.22622°
Altitude
476.088 km
Speed
7.629 km/s
True Right ascension
17h 00m 01s
True Declination
0° 00' 00"
Sunlit
Object was in daylight at epoch
Visualization orbit readout
Latitude
Unknown
Longitude
Unknown
Altitude
Unknown
Speed
Unknown
Apparent Right ascension
Unknown
Apparent Declination
Unknown
Sunlit
N/A
Visualization observer readout
Local Sidereal Time
14:08:33
Azimuth
Unknown
Elevation
Unknown
Doppler factor
Unknown
Orbital elements
Apogee altitude
476.439 km
Perigee altitude
474.561 km
Semi-major axis
6,853.637 km
Eccentricity
0.00014
Inclination
53.1599°
RAAN
255.0076°
Arg. of periapsis
86.7261°
True anomaly
273.37403°
Mean anomaly
273.3897°
Eccentric anomaly
273.38186°
Mean motion
3.82526 °/min
Orbital period
94.11 mins
BSTAR
0.00001968
Loading maneuver chart data...
Computing Atmospheric mass density...
Loading historical data...
Loading historical data...
Loading historical data...
Loading historical data...
Loading historical data...
Loading historical data...
Loading historical data...

Documentation

Showing up to 5 results
|